Location: Bleicherode
(51.4412°N, 10.5726°E)
Time: 01:12:46
(UTC+00:00)

Daily predictions for brighter satellites

Satellite Brightness Start Highest point End
(mag) Time Altitude Azimuth Time Altitude Azimuth Time Altitude Azimuth
STARLINK-1364 3.3 00:00:19 10° W 00:03:25 62° N 00:06:32 10° E
STARLINK-1376 3.3 00:00:39 10° W 00:03:45 62° N 00:06:51 10° E
STARLINK-1360 3.3 00:00:59 10° W 00:04:05 62° N 00:07:12 10° E
STARLINK-1268 4.0 00:04:28 27° SE 00:04:28 27° SE 00:07:04 10° E
STARLINK-1361 3.3 00:01:20 10° W 00:04:27 62° N 00:07:32 10° E
STARLINK-1367 3.3 00:01:35 10° W 00:04:43 63° N 00:07:52 10° E
STARLINK-1301 4.3 00:03:56 28° S 00:04:47 31° SE 00:08:14 10° E
STARLINK-1366 3.3 00:01:59 10° W 00:05:05 62° N 00:08:12 10° E
Cosmos 1400 Rocket 3.5 00:02:00 10° N 00:06:05 53° ENE 00:09:10 16° SSE
STARLINK-1303 4.3 00:05:53 28° SSE 00:06:38 30° SE 00:09:59 10° E
Cosmos 2227 Rocket 3.3 00:02:51 10° NW 00:07:34 28° WSW 00:10:10 20° SW
STARLINK-66 3.4 00:07:08 36° S 00:07:43 40° SSE 00:10:45 10° E
Cosmos 1570 Rocket 4.1 00:04:53 24° S 00:08:09 72° ESE 00:13:26 10° NNE
STARLINK-1338 3.8 00:05:14 10° W 00:09:13 69° N 00:13:12 10° E
Cosmos 1709 Rocket 4.0 00:05:05 22° S 00:09:17 86° E 00:15:31 10° N
Cosmos 1763 Rocket 3.5 00:05:57 22° SSW 00:09:18 75° WNW 00:14:24 10° NNE
STARLINK-1316 3.8 00:09:23 29° SSE 00:09:31 29° SSE 00:12:17 10° E
STARLINK-1312 4.2 00:09:13 28° S 00:10:06 32° SE 00:13:30 10° E
STARLINK-1257 3.8 00:10:14 29° SSE 00:10:24 30° SSE 00:13:12 10° E
STARLINK-1256 3.8 00:11:11 30° SSE 00:11:22 30° SSE 00:14:10 10° E
NOSS 7 (E) 4.3 00:09:44 24° SW 00:11:35 73° NW 00:14:39 10° NE
STARLINK-58 4.3 00:11:42 24° SE 00:11:43 24° SE 00:14:21 10° E
STARLINK-1213 3.8 00:12:02 30° SSE 00:12:15 30° SSE 00:15:03 10° E
Cosmos 2084 Rocket 3.8 00:08:05 10° NW 00:12:22 47° SW 00:14:58 22° SSE
STARLINK-52 3.0 00:09:09 10° WNW 00:12:23 79° NNE 00:15:36 10° E
STARLINK-1263 3.7 00:12:53 30° SSE 00:13:08 31° SSE 00:15:57 10° E
Cosmos 2227 4.4 00:08:17 10° NNW 00:14:03 74° ENE 00:19:49 10° SE
STARLINK-1259 3.7 00:13:47 30° SSE 00:14:04 31° SSE 00:16:53 10° E
STARLINK-1265 3.7 00:14:10 31° SSE 00:14:29 31° SSE 00:17:19 10° E
STARLINK-1285 3.7 00:14:38 31° SSE 00:14:57 31° SSE 00:17:46 10° E
Cosmos 2298 Rocket 4.1 00:09:42 10° NNW 00:15:03 84° ENE 00:19:50 13° SSE
STARLINK-1296 3.7 00:16:22 31° SSE 00:16:45 32° SSE 00:19:35 10° E
SL-16 R/B 3.1 00:11:09 10° SE 00:17:11 58° ENE 00:23:15 10° N
STARLINK-1371 3.8 00:13:36 10° W 00:17:34 68° N 00:21:31 10° E
STARLINK-1260 3.6 00:17:14 31° SSE 00:17:38 33° SSE 00:20:30 10° E
Cosmos 1758 Rocket 3.5 00:15:28 25° SSW 00:18:00 84° W 00:22:29 10° N
STARLINK-1318 3.6 00:18:06 32° SSE 00:18:32 33° SSE 00:21:24 10° E
STARLINK-75 3.4 00:18:02 33° SSW 00:18:56 43° SSE 00:22:01 10° ENE
GEOS 3 Rocket 4.4 00:14:14 10° ESE 00:19:20 55° NE 00:24:32 10° NW
STARLINK-1275 3.6 00:18:59 32° S 00:19:27 34° SSE 00:22:19 10° E
STARLINK-1309 3.6 00:19:50 32° S 00:20:20 34° SSE 00:23:12 10° E
STARLINK-1282 3.6 00:20:42 32° S 00:21:13 35° SSE 00:24:06 10° E
CZ-4 R/B 4.1 00:17:06 10° N 00:21:47 58° WNW 00:24:50 21° SW
STARLINK-1283 4.1 00:20:03 26° SSW 00:21:52 42° SSE 00:25:46 10° ENE
STARLINK-1341 3.8 00:17:59 10° W 00:21:58 69° N 00:25:56 10° E
STARLINK-1313 3.4 00:21:38 33° S 00:22:18 38° SSE 00:25:15 10° E
IRAS Rocket 4.2 00:18:06 18° SSE 00:22:24 79° WSW 00:27:57 10° NNW
STARLINK-80 4.0 00:21:06 28° SSW 00:22:31 39° SSE 00:26:06 10° ENE
STARLINK-1279 3.4 00:22:33 33° S 00:23:14 39° SSE 00:26:11 10° E
STARLINK-1298 3.5 00:23:16 32° S 00:23:52 36° SSE 00:26:47 10° E
STARLINK-1293 3.5 00:24:09 32° S 00:24:48 36° SSE 00:27:43 10° E
STARLINK-1374 3.8 00:22:20 10° W 00:26:19 69° N 00:30:20 10° E
STARLINK-1255 3.5 00:25:54 32° S 00:26:36 37° SSE 00:29:33 10° E
SL-16 R/B 3.7 00:22:44 12° SSE 00:26:53 25° ESE 00:31:26 10° NE
Cosmos 2208 Rocket 4.0 00:23:37 22° SSW 00:27:09 85° ESE 00:32:34 10° NNE
STARLINK-22 3.4 00:26:15 31° SSW 00:27:11 41° SSE 00:30:14 10° E
Cosmos 2285 Rocket 4.4 00:21:32 10° NNW 00:27:37 49° WSW 00:31:55 19° S
STARLINK 1040 2.3 00:26:21 25° WSW 00:27:39 85° NNW 00:30:13 10° ENE
STARLINK-1297 3.9 00:26:32 28° SSW 00:27:48 38° SSE 00:31:11 10° E
STARLINK-1444 3.4 00:25:42 10° WNW 00:26:52 26° W 00:26:52 26° W
STARLINK-1452 3.8 00:26:21 10° WNW 00:27:17 21° W 00:27:17 21° W
STARLINK-1311 3.1 00:28:27 35° S 00:29:08 42° SSE 00:31:59 10° E
STARLINK-1399 4.4 00:27:12 10° WNW 00:27:36 14° W 00:27:36 14° W
STARLINK-1393 4.5 00:27:14 10° WNW 00:27:35 13° W 00:27:35 13° W
STARLINK-1394 4.5 00:27:15 10° WNW 00:27:36 13° W 00:27:36 13° W
STARLINK-1397 4.4 00:27:18 10° WNW 00:27:44 14° W 00:27:44 14° W
STARLINK-1396 4.5 00:27:19 10° WNW 00:27:42 14° W 00:27:42 14° W
STARLINK-1404 4.4 00:27:25 10° WNW 00:27:49 14° W 00:27:49 14° W
STARLINK-1415 4.3 00:27:25 10° WNW 00:27:56 15° W 00:27:56 15° W
STARLINK-1450 4.3 00:27:28 10° WNW 00:28:00 15° W 00:28:00 15° W
STARLINK-1401 4.3 00:27:29 10° WNW 00:28:00 15° W 00:28:00 15° W
STARLINK-1417 4.3 00:27:32 10° WNW 00:28:04 15° W 00:28:04 15° W
STARLINK-1402 4.3 00:27:34 10° WNW 00:28:05 15° W 00:28:05 15° W
STARLINK-1413 4.3 00:27:34 10° WNW 00:28:05 15° W 00:28:05 15° W
STARLINK-1419 4.4 00:27:34 10° WNW 00:28:00 14° W 00:28:00 14° W
STARLINK-1422 4.3 00:27:40 10° WNW 00:28:09 15° W 00:28:09 15° W
STARLINK-1453 4.2 00:27:41 10° WNW 00:28:18 16° W 00:28:18 16° W
STARLINK-1398 4.0 00:27:42 10° WNW 00:28:28 18° W 00:28:28 18° W
STARLINK-1420 4.3 00:27:44 10° WNW 00:28:18 16° W 00:28:18 16° W
STARLINK-1440 4.2 00:27:46 10° WNW 00:28:21 16° W 00:28:21 16° W
STARLINK-1460 4.3 00:27:47 10° WNW 00:28:21 16° W 00:28:21 16° W
STARLINK-1436 (VISORSAT) 4.0 00:27:46 10° WNW 00:28:34 19° W 00:28:34 19° W
STARLINK-1410 4.3 00:27:51 10° WNW 00:28:22 15° W 00:28:22 15° W
STARLINK-1400 4.3 00:27:51 10° WNW 00:28:24 15° W 00:28:24 15° W
STARLINK-1423 4.4 00:27:52 10° WNW 00:28:16 14° W 00:28:16 14° W
STARLINK-1421 4.4 00:27:52 10° WNW 00:28:16 14° W 00:28:16 14° W
STARLINK-1454 4.3 00:27:53 10° WNW 00:28:26 16° W 00:28:26 16° W
STARLINK-1458 4.4 00:27:56 10° WNW 00:28:24 15° W 00:28:24 15° W
STARLINK-1445 4.2 00:27:58 10° WNW 00:28:35 16° W 00:28:35 16° W
STARLINK-1407 4.2 00:28:00 10° WNW 00:28:35 16° W 00:28:35 16° W
STARLINK-1446 4.2 00:28:00 10° WNW 00:28:37 16° W 00:28:37 16° W
STARLINK-1370 4.2 00:28:02 10° WNW 00:28:37 16° W 00:28:37 16° W
STARLINK-1456 4.4 00:28:04 10° WNW 00:28:33 15° W 00:28:33 15° W
STARLINK-1457 4.4 00:28:04 10° WNW 00:28:33 15° W 00:28:33 15° W
STARLINK-1451 4.4 00:28:05 10° WNW 00:28:33 15° W 00:28:33 15° W
STARLINK-1409 4.4 00:28:05 10° WNW 00:28:33 15° W 00:28:33 15° W
STARLINK-1447 4.2 00:28:05 10° WNW 00:28:41 16° W 00:28:41 16° W
STARLINK-1455 4.2 00:28:06 10° WNW 00:28:41 16° W 00:28:41 16° W
STARLINK-1437 4.3 00:28:07 10° WNW 00:28:38 15° W 00:28:38 15° W
STARLINK-1441 4.2 00:28:08 10° WNW 00:28:44 16° W 00:28:44 16° W
STARLINK-1443 4.1 00:28:11 10° WNW 00:28:52 17° W 00:28:52 17° W
STARLINK-1351 4.2 00:28:12 10° WNW 00:28:49 16° W 00:28:49 16° W
STARLINK-1418 4.2 00:28:12 10° WNW 00:28:48 16° W 00:28:48 16° W
STARLINK-1403 4.1 00:28:13 10° WNW 00:28:52 17° W 00:28:52 17° W
STARLINK-1434 4.1 00:28:13 10° WNW 00:28:54 17° W 00:28:54 17° W
STARLINK-1442 4.2 00:28:14 10° WNW 00:28:50 16° W 00:28:50 16° W
STARLINK-1448 4.2 00:28:16 10° WNW 00:28:51 16° W 00:28:51 16° W
STARLINK-1433 4.2 00:28:16 10° WNW 00:28:51 16° W 00:28:51 16° W
STARLINK-1449 4.2 00:28:19 10° WNW 00:28:57 17° W 00:28:57 17° W
STARLINK-1438 4.4 00:28:21 10° WNW 00:28:49 14° W 00:28:49 14° W
STARLINK-1339 3.8 00:26:36 10° W 00:30:35 69° N 00:34:33 10° E
STARLINK-1411 4.3 00:28:29 10° WNW 00:29:01 15° W 00:29:01 15° W
STARLINK-1412 4.2 00:28:29 10° WNW 00:29:05 16° W 00:29:05 16° W
CZ-2D R/B 3.1 00:25:57 10° NNE 00:30:49 38° E 00:35:02 13° SSE
Cosmos-2242 3.3 00:27:49 10° NNW 00:31:59 52° W 00:34:23 23° SSW
Meteor 2-10 Rocket 4.2 00:27:37 10° NNW 00:32:21 38° W 00:35:16 20° SSW
MOZ.5/SAFIR/RUBIN 5/SL-8 3.8 00:29:16 15° SSE 00:33:08 80° ENE 00:37:49 10° NNW
USA 81 4.3 00:30:17 21° SSW 00:33:48 61° W 00:39:03 10° N
USA 215 3.7 00:28:23 10° SSE 00:34:28 40° SW 00:40:34 10° WNW
Cosmos 2221 3.6 00:30:36 10° N 00:34:47 42° ENE 00:38:56 10° SE
STARLINK-1377 3.8 00:31:01 10° W 00:35:01 69° N 00:39:01 10° E
Cosmos 1953 Rocket 3.5 00:33:32 22° S 00:36:23 86° E 00:40:48 10° NNE
BREEZE-M R/B 2.8 00:31:53 10° W 00:37:39 70° S 00:40:45 10° E
STARLINK-42 2.9 00:36:26 27° SW 00:37:52 57° SSE 00:40:57 10° ENE
STARLINK-1353 3.8 00:35:21 10° W 00:39:21 70° N 00:43:22 10° E
GP-B 3.2 00:35:13 10° N 00:39:41 75° E 00:42:59 18° S
STARLINK-1029 4.0 00:39:04 26° S 00:39:49 29° SSE 00:42:39 10° E
STARLINK-60 3.1 00:37:14 10° WNW 00:40:19 47° SSW 00:43:23 10° SE
FALCON 9 DEB 3.1 00:37:19 10° WNW 00:40:47 83° NNE 00:44:15 10° ESE
STARLINK-34 3.5 00:40:02 29° S 00:40:54 36° SSE 00:43:46 10° E
SeaSat 1 4.4 00:37:19 10° NNE 00:41:11 24° NW 00:45:03 10° W
STARLINK-41 2.9 00:40:11 27° SW 00:41:36 58° SSE 00:44:37 10° ENE
Cosmos 1315 Rocket 3.7 00:37:49 10° N 00:41:39 47° ENE 00:45:28 10° SSE
Cosmos 1842 Rocket 4.1 00:37:20 10° N 00:41:48 59° ENE 00:46:05 11° SSE
CZ-4C R/B 3.7 00:38:34 14° SSE 00:42:19 83° ENE 00:46:48 10° NNW
STARLINK-1375 3.8 00:39:43 10° W 00:43:44 70° N 00:47:45 10° E
STARLINK-1272 3.5 00:42:02 24° SW 00:43:48 48° SSE 00:47:14 10° ENE
STARLINK-62 3.4 00:43:44 28° SSW 00:44:44 38° SSE 00:47:37 10° E
Cosmos 540 Rocket 3.5 00:41:07 19° SSW 00:44:47 73° WNW 00:49:57 10° NNE
Helios 1B rocket 3.6 00:43:47 10° N 00:47:32 34° WNW 00:50:24 15° WSW
STARLINK-1350 3.8 00:44:03 10° W 00:48:04 71° N 00:52:05 10° E
STARLINK-1307 3.5 00:46:48 22° SW 00:48:58 52° SSE 00:52:35 10° ENE
Cosmos 2360 Rocket 4.3 00:45:46 10° SE 00:49:20 17° E 00:52:56 10° ENE
STARLINK-1352 3.8 00:48:19 10° WNW 00:52:19 72° N 00:56:20 10° E
STARLINK-1290 3.5 00:50:11 21° SW 00:52:28 54° SSE 00:56:07 10° ENE
Meteor 1-29 4.1 00:53:09 10° N 00:56:10 31° WNW 00:58:11 17° WSW
Cosmos 1980 Rocket 2.3 00:51:50 17° SW 00:56:14 76° WNW 01:01:56 10° NNE
Cosmos 2074 Rocket 4.1 00:51:22 15° S 00:56:39 81° E 01:02:58 10° NNE
STARLINK-1368 3.8 00:52:54 10° WNW 00:56:56 73° N 01:00:58 10° E
Cosmos 1455 4.0 00:55:51 10° NW 00:58:26 18° W 01:00:05 14° WSW
STARLINK-1317 3.5 00:56:34 17° SW 00:59:26 63° SSE 01:03:18 10° ENE
CZ-4B R/B 4.3 00:54:39 10° NNE 00:59:45 48° E 01:04:34 11° S
STARLINK-1369 3.7 00:57:20 10° WNW 01:01:22 74° N 01:05:24 10° E
STARLINK-55 2.8 01:00:33 14° WSW 01:03:15 85° SSE 01:06:27 10° ENE
STARLINK-1274 3.2 01:00:55 18° SW 01:03:26 62° SSE 01:06:57 10° ENE
STARLINK-43 3.4 01:00:56 10° W 01:04:38 77° N 01:08:19 10° ENE
STARLINK-1372 3.7 01:01:35 10° WNW 01:05:36 76° N 01:09:37 10° E
STARLINK-1291 3.3 01:04:15 16° WSW 01:07:08 66° SSE 01:10:51 10° ENE
Meteor 1-11 4.3 01:03:54 17° SSW 01:08:20 71° WNW 01:13:57 10° N
Cosmos 1703 4.5 01:05:53 15° SW 01:08:29 31° WNW 01:12:01 10° N
ADEOS II 3.4 01:04:05 10° NNE 01:08:52 34° E 01:13:37 10° SSE
Cosmos 2263 Rocket 2.3 01:04:35 10° NW 01:10:04 55° WSW 01:15:28 10° S
STARLINK-1378 3.7 01:06:13 10° WNW 01:10:14 77° N 01:14:17 10° E
STARLINK-1264 3.3 01:07:26 15° WSW 01:10:27 68° SSE 01:14:10 10° ENE
IRS-1D 4.4 01:07:10 10° NNE 01:12:14 44° E 01:17:10 10° S
STARLINK-29 3.1 01:10:00 10° WNW 01:13:07 49° SSW 01:16:12 10° SE
STARLINK-1267 3.3 01:10:40 14° WSW 01:13:48 71° SSE 01:17:32 10° ENE
AQUA 4.2 01:09:17 10° NNE 01:14:01 61° ESE 01:18:24 12° S
NOSS 2-1 (C) 3.7 01:12:04 18° S 01:14:16 41° SE 01:17:44 10° NE
SL-4 R/B 2.8 01:10:05 10° W 01:14:35 40° SSW 01:18:58 10° SE
STARLINK-1379 3.7 01:10:42 10° WNW 01:14:45 79° NNE 01:18:47 10° E
STARLINK-28 2.9 01:11:34 10° WSW 01:14:46 84° NNW 01:18:00 10° ENE
UNK 3.9 01:11:40 13° S 01:15:37 58° W 01:20:10 10° NNW
USA 229 DEB 4.0 01:08:51 10° NW 01:15:55 58° SW 01:23:19 10° SSE
USA 229 4.0 01:08:57 10° NW 01:16:01 59° SW 01:23:26 10° SSE
STARLINK-64 3.8 01:14:12 18° SSW 01:16:26 41° SSE 01:19:50 10° ENE
NOSS 3-1 (C) 4.2 01:09:32 10° NW 01:16:46 56° SW 01:25:03 10° SSE
NPP 3.8 01:12:32 10° NNE 01:17:58 79° ESE 01:22:54 13° SSW
ARIANE 5 R/B 4.3 01:14:23 10° NE 01:18:32 25° E 01:22:38 10° SSE
STARLINK-1329 3.7 01:14:30 10° WNW 01:18:34 80° NNE 01:22:36 10° E
NOSS 2-1 (D) 3.6 01:16:51 17° SSW 01:19:09 46° SE 01:22:42 10° NE
STARLINK-1207 3.3 01:17:09 12° WSW 01:20:34 76° SSE 01:24:19 10° ENE
Cosmos 2184 Rocket 4.0 01:16:26 14° SSW 01:21:49 73° WNW 01:28:01 10° N
STARLINK-1362 3.6 01:19:02 10° WNW 01:23:06 82° NNE 01:27:09 10° ESE
ERS-2 4.4 01:20:18 10° ESE 01:23:23 26° ENE 01:26:29 10° N
CZ-4C R/B 3.4 01:18:17 10° W 01:23:28 42° NNW 01:29:42 10° NE
STARLINK-1266 3.3 01:20:25 11° WSW 01:23:58 78° SSE 01:27:43 10° ENE
BREEZE-M DEB (TANK) 2.5 01:23:14 21° SSW 01:24:11 35° SSE 01:27:00 10° E
STARLINK-33 2.9 01:21:52 10° WSW 01:24:59 82° NNW 01:28:06 10° ENE
NOSS 3-1 (A) 4.1 01:17:40 10° NW 01:25:00 69° SW 01:33:29 10° SSE
Cosmos 1892 3.3 01:21:53 10° S 01:25:33 52° E 01:29:15 10° NNE
STARLINK-1299 4.3 01:24:05 15° SSW 01:27:13 41° SSE 01:31:14 10° ENE
STARLINK-1284 3.3 01:23:40 10° WSW 01:27:22 81° SSE 01:31:08 10° ENE
STARLINK-1373 3.6 01:23:34 10° WNW 01:27:37 84° NNE 01:31:40 10° ESE
STARLINK-1320 2.8 01:24:41 10° WNW 01:27:49 84° SSW 01:30:56 10° ESE
STARLINK-1322 2.8 01:25:02 10° WNW 01:28:10 83° SSW 01:31:17 10° ESE
BREEZE-M DEB (TANK) 1.1 01:26:04 10° W 01:28:25 53° S 01:30:58 10° ESE
STARLINK-26 3.2 01:25:01 10° W 01:28:27 80° NNW 01:31:54 10° ENE
STARLINK-1324 2.8 01:25:21 10° WNW 01:28:29 83° SSW 01:31:37 10° ESE
STARLINK-1302 4.4 01:25:46 15° SSW 01:28:43 36° SE 01:32:33 10° E
STARLINK-1294 2.8 01:25:39 10° WNW 01:28:48 83° SSW 01:31:57 10° ESE
STARLINK-1261 2.8 01:26:02 10° WNW 01:29:11 83° SSW 01:32:18 10° ESE
Cosmos 1869 3.3 01:25:31 10° NNW 01:29:21 62° W 01:33:01 11° S
STARLINK-1325 2.8 01:26:23 10° WNW 01:29:31 82° SSW 01:32:39 10° ESE
STARLINK-1333 2.7 01:26:46 10° WNW 01:29:53 82° SSW 01:33:01 10° ESE
STARLINK-1334 2.7 01:27:03 10° WNW 01:30:11 82° SSW 01:33:17 10° ESE
STARLINK-1326 2.7 01:27:22 10° WNW 01:30:30 82° SSW 01:33:37 10° ESE
STARLINK-1258 3.3 01:27:02 10° WSW 01:30:48 83° SSE 01:34:34 10° ENE
STARLINK-1323 2.7 01:27:45 10° WNW 01:30:53 81° SSW 01:34:01 10° ESE
STARLINK-1349 2.7 01:28:03 10° WNW 01:31:11 81° SSW 01:34:18 10° ESE
STARLINK-1336 2.7 01:28:22 10° WNW 01:31:30 81° SSW 01:34:38 10° ESE
STARLINK-1331 2.7 01:28:45 10° WNW 01:31:53 80° SSW 01:35:00 10° ESE
STARLINK-1344 2.7 01:29:04 10° WNW 01:32:11 80° SSW 01:35:18 10° ESE
STARLINK-1390 3.6 01:28:09 10° WNW 01:32:13 86° NNE 01:36:17 10° ESE
STARLINK-1343 2.7 01:29:26 10° WNW 01:32:34 80° SSW 01:35:42 10° ESE
STARLINK-1346 2.8 01:29:42 10° WNW 01:32:52 80° SSW 01:36:01 10° ESE
STARLINK-1328 2.7 01:30:09 10° WNW 01:33:17 79° SSW 01:36:24 10° ESE
STARLINK-1354 2.7 01:30:27 10° WNW 01:33:35 79° SSW 01:36:42 10° ESE
STARLINK-1273 4.3 01:30:32 14° SSW 01:33:39 39° SSE 01:37:32 10° ENE
STARLINK-1347 2.7 01:30:44 10° WNW 01:33:51 79° SSW 01:36:59 10° ESE
STARLINK-1292 3.3 01:30:29 10° WSW 01:34:14 85° SSE 01:38:00 10° ENE
STARLINK-1357 2.7 01:31:10 10° WNW 01:34:17 78° SSW 01:37:24 10° ESE
ATLAS CENTAUR R/B 4.5 01:32:47 10° NNW 01:34:26 12° N 01:36:02 10° NNE
STARLINK-1335 2.7 01:31:27 10° WNW 01:34:35 78° SSW 01:37:42 10° ESE
Cosmos 2322 Rocket 2.5 01:29:42 12° SSW 01:34:53 64° ESE 01:40:28 10° NE
STARLINK-1327 2.7 01:31:48 10° WNW 01:34:56 78° SSW 01:38:03 10° ESE
STARLINK-1340 2.7 01:32:06 10° WNW 01:35:13 78° SSW 01:38:21 10° ESE
STARLINK-1356 2.7 01:32:29 10° WNW 01:35:36 77° SSW 01:38:44 10° ESE
STARLINK-1345 2.7 01:32:47 10° WNW 01:35:55 77° SSW 01:39:01 10° ESE
STARLINK-1355 2.7 01:33:09 10° WNW 01:36:16 77° SSW 01:39:23 10° ESE
STARLINK-1321 2.7 01:33:29 10° WNW 01:36:37 76° SSW 01:39:45 10° ESE
In-Cosmos 22 Rocket 4.3 01:31:11 10° S 01:36:45 76° E 01:42:13 10° NNE
STARLINK-1358 2.7 01:33:53 10° WNW 01:37:00 76° SSW 01:40:07 10° ESE
STARLINK-1332 2.7 01:34:10 10° WNW 01:37:18 76° SSW 01:40:25 10° ESE
STARLINK-1348 2.7 01:34:30 10° WNW 01:37:38 76° SSW 01:40:45 10° ESE
STARLINK-1330 2.7 01:34:50 10° WNW 01:37:57 75° SSW 01:41:04 10° ESE
STARLINK-1365 3.6 01:34:07 10° WNW 01:38:13 90° SSW 01:42:19 10° ESE
STARLINK-1363 2.7 01:35:10 10° WNW 01:38:17 75° SSW 01:41:24 10° ESE
STARLINK-1288 4.3 01:35:19 14° SW 01:38:36 41° SSE 01:42:32 10° ENE
STARLINK-1337 2.7 01:35:33 10° WNW 01:38:40 75° SSW 01:41:47 10° ESE
STARLINK-61 4.5 01:35:51 14° SSW 01:38:45 32° SE 01:42:18 10° E
STARLINK-1342 2.7 01:35:51 10° WNW 01:38:59 74° SSW 01:42:06 10° ESE
STARLINK-1364 2.7 01:36:12 10° WNW 01:39:19 74° SSW 01:42:26 10° ESE
STARLINK-1376 2.7 01:36:32 10° WNW 01:39:39 74° SSW 01:42:46 10° ESE
STARLINK-1268 2.8 01:36:47 10° WSW 01:39:53 85° NNW 01:42:59 10° ENE
Resurs 1-4 Rocket 2.3 01:34:38 10° N 01:39:53 63° WNW 01:44:54 11° SSW
STARLINK-1360 2.7 01:36:53 10° WNW 01:40:00 74° SSW 01:43:07 10° ESE
STARLINK-1361 2.7 01:37:13 10° WNW 01:40:20 73° SSW 01:43:27 10° ESE
STARLINK-1367 2.8 01:37:29 10° WNW 01:40:38 73° SSW 01:43:47 10° ESE
STARLINK-1366 2.7 01:37:52 10° WNW 01:40:59 73° SSW 01:44:06 10° ESE
STARLINK-1289 3.3 01:37:20 10° WSW 01:41:05 90° SSE 01:44:52 10° ENE
Cosmos 1697 Rocket 4.3 01:38:00 10° W 01:42:49 28° NW 01:47:39 10° NNE
STARLINK-1301 3.4 01:39:12 10° WSW 01:43:04 88° NNW 01:46:57 10° ENE
STARLINK-1308 4.2 01:40:08 13° SW 01:43:37 44° SSE 01:47:34 10° ENE
STARLINK-66 3.2 01:40:32 10° W 01:43:44 72° N 01:46:57 10° ENE
Cosmos 1125 Rocket 4.2 01:39:12 10° NW 01:43:52 34° WSW 01:48:32 10° SSW
Cosmos 1076 Rocket 3.6 01:39:57 10° S 01:44:20 83° E 01:48:44 10° NNE
STARLINK-1303 3.4 01:40:49 10° WSW 01:44:34 88° NNW 01:48:21 10° ENE
STARLINK-1316 2.9 01:42:01 10° WSW 01:45:09 82° NNW 01:48:17 10° ENE
STARLINK-1257 2.9 01:42:54 10° WSW 01:46:02 81° NNW 01:49:11 10° ENE
Cosmos 2151 4.2 01:42:09 10° SSE 01:46:09 39° E 01:50:12 10° NNE
COBE Rocket 4.5 01:41:49 10° SSE 01:46:52 67° ENE 01:52:02 10° N
STARLINK-1256 2.9 01:43:53 10° WSW 01:47:00 81° NNW 01:50:08 10° ENE
STARLINK-58 2.9 01:44:16 10° WSW 01:47:27 87° SSE 01:50:39 10° ENE
STARLINK-1213 2.9 01:44:45 10° WSW 01:47:53 80° NNW 01:51:01 10° ENE
STARLINK-1312 3.4 01:44:17 10° WSW 01:48:04 86° NNW 01:51:52 10° ENE
H-2A R/B 3.5 01:43:58 10° SE 01:48:11 43° ENE 01:52:28 10° N
STARLINK-1338 3.5 01:44:20 10° WNW 01:48:20 84° SSW 01:52:20 10° ESE
STARLINK-52 3.6 01:45:25 10° W 01:48:21 32° SSW 01:51:15 10° SSE
STARLINK-1263 2.9 01:45:39 10° W 01:48:46 80° NNW 01:51:54 10° ENE
STARLINK-1259 2.9 01:46:35 10° W 01:49:43 79° NNW 01:52:51 10° ENE
STARLINK-1265 3.0 01:46:58 10° W 01:50:07 79° NNW 01:53:17 10° ENE
STARLINK-1285 3.0 01:47:28 10° W 01:50:36 79° N 01:53:44 10° ENE
STARLINK-1296 3.0 01:49:17 10° W 01:52:24 78° NNW 01:55:33 10° ENE
STARLINK-1260 3.0 01:50:10 10° W 01:53:18 77° NNW 01:56:26 10° ENE
STARLINK-1304 4.0 01:49:41 11° SW 01:53:31 49° SSE 01:57:32 10° ENE
Cosmos 1408 2.9 01:50:06 10° S 01:53:45 66° E 01:57:25 10° NNE
STARLINK-1318 3.0 01:51:05 10° W 01:54:13 77° NNW 01:57:21 10° ENE
STARLINK-75 3.2 01:51:45 10° W 01:54:59 71° N 01:58:13 10° ENE
STARLINK-1275 3.0 01:51:59 10° W 01:55:08 76° N 01:58:16 10° ENE
STARLINK-1309 3.0 01:52:53 10° W 01:56:00 76° NNW 01:59:08 10° ENE
Cosmos 2154 Rocket 4.2 01:50:00 10° SSW 01:56:10 64° WNW 02:02:23 10° N
STARLINK-1371 3.4 01:52:36 10° WNW 01:56:35 79° SSW 02:00:32 10° ESE
STARLINK-1282 3.0 01:53:47 10° W 01:56:54 75° NNW 02:00:02 10° ENE
GEOS 3 Rocket 4.0 01:52:35 10° SSE 01:57:29 42° SW 02:02:31 10° NW
STARLINK-1313 3.1 01:54:54 10° W 01:58:02 72° N 02:01:09 10° ENE
STARLINK-48 3.4 01:54:13 10° WSW 01:58:07 77° SSE 02:02:01 10° ENE
STARLINK-1279 3.1 01:55:50 10° W 01:58:57 72° N 02:02:05 10° ENE
STARLINK-1298 3.0 01:56:27 10° W 01:59:34 74° N 02:02:42 10° ENE
STARLINK-1278 3.9 01:55:28 10° SW 01:59:39 59° SSE 02:03:51 10° ENE
Cosmos 1825 2.9 01:56:42 10° S 02:00:21 52° E 02:04:03 10° NNE
STARLINK-1293 3.1 01:57:23 10° W 02:00:30 74° N 02:03:39 10° ENE
STARLINK-80 3.5 01:56:49 10° W 02:00:38 79° NNW 02:04:27 10° ENE
STARLINK-1341 3.4 01:57:00 10° WNW 02:00:58 76° SSW 02:04:56 10° ESE
SL-16 R/B 3.4 01:55:47 10° SSW 02:01:09 31° W 02:06:35 10° NNW
STARLINK-1283 3.7 01:57:07 10° W 02:01:15 80° NNW 02:05:24 10° ENE
STARLINK-1280 3.9 01:57:17 10° SW 02:01:29 60° SSE 02:05:42 10° ENE
STARLINK 1040 3.0 01:59:10 10° WNW 02:01:42 58° N 02:04:14 10° E
STARLINK-1255 3.1 01:59:12 10° W 02:02:19 73° NNW 02:05:27 10° ENE
SL-08 R/B 3.2 01:58:03 10° SSE 02:02:40 78° WSW 02:07:19 10° NNW
STARLINK-22 3.2 02:00:00 10° W 02:03:13 72° N 02:06:25 10° ENE
IRS-P3 4.3 01:58:01 10° NNE 02:03:24 80° ESE 02:08:43 10° SSW
STARLINK-1311 3.0 02:01:24 10° W 02:04:20 67° N 02:07:17 10° ENE
Cosmos 1844 Rocket 2.7 01:59:03 10° NNW 02:04:42 84° WSW 02:10:16 10° SSE
STARLINK-1297 3.4 02:01:41 10° W 02:05:17 78° NNW 02:08:55 10° ENE
STARLINK-1374 3.5 02:01:28 10° WNW 02:05:28 73° SSW 02:09:27 10° ESE
NOSS 2-1 (E) 3.2 02:05:09 10° SW 02:08:33 73° NW 02:12:27 10° NE
STARLINK-1339 3.4 02:05:38 10° WNW 02:09:35 70° SSW 02:13:32 10° ESE
STARLINK-1286 3.8 02:06:01 10° SW 02:10:07 61° SSE 02:14:15 10° ENE
SL-16 R/B 2.4 02:04:54 10° SW 02:10:32 67° WNW 02:16:14 10° NNE
CZ-2D R/B 2.9 02:06:06 10° N 02:10:54 38° WNW 02:15:41 10° SW
Cosmos 2221 3.9 02:08:37 10° NW 02:12:07 24° W 02:15:37 10° SW
STARLINK-1281 3.8 02:09:16 10° SW 02:13:21 62° SSE 02:17:27 10° ENE
STARLINK-42 3.3 02:10:34 10° W 02:13:40 64° N 02:16:47 10° ENE
STARLINK-1377 3.5 02:10:10 10° WNW 02:14:09 67° SSW 02:18:07 10° ESE
COSMOS 2428 4.5 02:10:42 10° SSE 02:15:20 27° ESE 02:19:59 10° NE
STARLINK-1029 3.0 02:12:24 10° WSW 02:15:34 82° NNW 02:18:46 10° ENE
CZ-4C R/B 3.7 02:12:33 10° SSE 02:16:08 60° ENE 02:19:43 10° N
STARLINK-34 3.0 02:13:20 10° W 02:16:25 74° N 02:19:30 10° ENE
STARLINK-41 3.3 02:14:10 10° W 02:17:12 63° N 02:20:14 10° ENE
Cosmos 773 Rocket 4.3 02:12:15 10° SSW 02:17:28 67° ESE 02:22:45 10° NNE
FALCON 9 DEB 3.9 02:14:31 10° W 02:17:38 32° SSW 02:20:45 10° SSE
Cosmos 1315 Rocket 4.5 02:15:09 10° NW 02:17:53 18° W 02:20:36 10° SW
STARLINK-1310 3.7 02:14:13 10° WSW 02:18:20 65° SSE 02:22:27 10° ENE
STARLINK-1353 3.5 02:14:31 10° WNW 02:18:29 64° SSW 02:22:27 10° ESE
CBERS-1 4.4 02:15:38 10° N 02:20:39 56° WNW 02:25:39 10° SW
